Time,TemperatureF,DewpointF,PressureIn,WindDirection,WindDirectionDegrees,WindSpeedMPH,WindSpeedGustMPH,Humidity,HourlyPrecipIn,Conditions,Clouds,dailyrainin,SoftwareType,DateUTC
2013-05-29 00:03:00,56.0,55.0,-100.00,SE,135,1.0,5.0,97,-99.99,,,-99.99,,2013-05-29 04:03:00,
2013-05-29 00:23:00,56.0,55.0,-100.00,ESE,115,1.0,3.0,97,-99.99,,,-99.99,,2013-05-29 04:23:00,
2013-05-29 00:33:00,56.0,54.0,-100.00,East,95,1.0,5.0,94,-99.99,,,-99.99,,2013-05-29 04:33:00,
2013-05-29 00:42:00,56.0,54.0,-100.00,East,95,1.0,5.0,94,-99.99,,,-99.99,,2013-05-29 04:42:00,
2013-05-29 00:52:00,55.0,54.0,-100.00,East,95,1.0,2.0,96,-99.99,,,-99.99,,2013-05-29 04:52:00,
2013-05-29 01:03:00,55.0,54.0,-100.00,East,95,1.0,2.0,96,-99.99,,,-99.99,,2013-05-29 05:03:00,
2013-05-29 01:22:00,55.0,55.0,-100.00,SE,135,2.0,5.0,99,-99.99,,,-99.99,,2013-05-29 05:22:00,
2013-05-29 01:33:00,55.0,54.0,-100.00,ESE,120,1.0,3.0,95,-99.99,,,-99.99,,2013-05-29 05:33:00,
2013-05-29 01:42:00,55.0,54.0,-100.00,North,10,0.0,2.0,98,-99.99,,,-99.99,,2013-05-29 05:42:00,
2013-05-29 02:02:00,54.0,52.0,-100.00,ENE,65,1.0,2.0,94,-99.99,,,-99.99,,2013-05-29 06:02:00,
2013-05-29 02:12:00,54.0,52.0,-100.00,East,90,0.0,1.0,94,-99.99,,,-99.99,,2013-05-29 06:12:00,
2013-05-29 02:22:00,54.0,53.0,-100.00,SW,225,1.0,1.0,97,-99.99,,,-99.99,,2013-05-29 06:22:00,
2013-05-29 02:32:00,54.0,52.0,-100.00,South,190,0.0,1.0,92,-99.99,,,-99.99,,2013-05-29 06:32:00,
2013-05-29 02:42:00,54.0,52.0,-100.00,West,275,0.0,2.0,94,-99.99,,,-99.99,,2013-05-29 06:42:00,
2013-05-29 02:52:00,54.0,52.0,-100.00,South,170,1.0,3.0,91,-99.99,,,-99.99,,2013-05-29 06:52:00,
2013-05-29 03:01:00,53.0,52.0,-100.00,WNW,295,3.0,10.0,95,-99.99,,,-99.99,,2013-05-29 07:01:00,
2013-05-29 03:12:00,53.0,52.0,-100.00,WNW,295,3.0,10.0,95,-99.99,,,-99.99,,2013-05-29 07:12:00,
2013-05-29 03:22:00,52.0,51.0,-100.00,NW,305,6.0,12.0,94,-99.99,,,-99.99,,2013-05-29 07:22:00,
2013-05-29 03:34:00,52.0,51.0,-100.00,West,275,2.0,9.0,95,-99.99,,,-99.99,,2013-05-29 07:34:00,
2013-05-29 03:42:00,52.0,51.0,-100.00,WNW,300,5.0,6.0,98,-99.99,,,-99.99,,2013-05-29 07:42:00,
2013-05-29 03:52:00,51.0,49.0,-100.00,NW,305,5.0,12.0,94,-99.99,,,-99.99,,2013-05-29 07:52:00,
2013-05-29 04:02:00,51.0,51.0,-100.00,SW,235,3.0,7.0,99,-99.99,,,-99.99,,2013-05-29 08:02:00,
2013-05-29 04:11:00,51.0,49.0,-100.00,NW,315,2.0,5.0,94,-99.99,,,-99.99,,2013-05-29 08:11:00,
2013-05-29 04:22:00,49.0,48.0,-100.00,NW,305,6.0,9.0,94,-99.99,,,-99.99,,2013-05-29 08:22:00,
2013-05-29 04:32:00,51.0,50.0,-100.00,West,275,6.0,13.0,98,-99.99,,,-99.99,,2013-05-29 08:32:00,
2013-05-29 04:42:00,51.0,50.0,-100.00,West,275,6.0,13.0,98,-99.99,,,-99.99,,2013-05-29 08:42:00,
2013-05-29 04:52:00,50.0,48.0,-100.00,West,275,12.0,16.0,94,-99.99,,,-99.99,,2013-05-29 08:52:00,
2013-05-29 05:02:00,50.0,48.0,-100.00,West,275,12.0,16.0,94,-99.99,,,-99.99,,2013-05-29 09:02:00,
2013-05-29 05:21:00,48.0,48.0,-100.00,West,270,6.0,17.0,99,-99.99,,,-99.99,,2013-05-29 09:21:00,
2013-05-29 05:33:00,48.0,46.0,-100.00,West,270,5.0,9.0,92,-99.99,,,-99.99,,2013-05-29 09:33:00,
2013-05-29 05:42:00,48.0,46.0,-100.00,West,280,7.0,9.0,94,-99.99,,,-99.99,,2013-05-29 09:42:00,
2013-05-29 05:52:00,48.0,46.0,-100.00,SW,230,2.0,8.0,94,-99.99,,,-99.99,,2013-05-29 09:52:00,
2013-05-29 06:03:00,48.0,46.0,-100.00,WSW,240,3.0,6.0,93,-99.99,,,-99.99,,2013-05-29 10:03:00,
2013-05-29 06:12:00,48.0,46.0,-100.00,WSW,240,3.0,9.0,92,-99.99,,,-99.99,,2013-05-29 10:12:00,
2013-05-29 06:22:00,49.0,46.0,-100.00,West,265,2.0,7.0,91,-99.99,,,-99.99,,2013-05-29 10:22:00,
2013-05-29 06:33:00,49.0,47.0,-100.00,SW,235,3.0,9.0,92,-99.99,,,-99.99,,2013-05-29 10:33:00,
2013-05-29 06:42:00,49.0,47.0,-100.00,SW,235,3.0,9.0,92,-99.99,,,-99.99,,2013-05-29 10:42:00,
2013-05-29 06:53:00,49.0,47.0,-100.00,SW,235,3.0,9.0,92,-99.99,,,-99.99,,2013-05-29 10:53:00,
2013-05-29 07:02:00,49.0,47.0,-100.00,SSW,210,5.0,15.0,91,-99.99,,,-99.99,,2013-05-29 11:02:00,
2013-05-29 07:12:00,50.0,47.0,-100.00,SSW,210,6.0,14.0,91,-99.99,,,-99.99,,2013-05-29 11:12:00,
2013-05-29 07:22:00,50.0,47.0,-100.00,South,190,2.0,8.0,90,-99.99,,,-99.99,,2013-05-29 11:22:00,
2013-05-29 07:42:00,49.0,47.0,-100.00,NW,315,2.0,5.0,91,-99.99,,,-99.99,,2013-05-29 11:42:00,
2013-05-29 07:52:00,49.0,47.0,-100.00,West,260,2.0,7.0,92,-99.99,,,-99.99,,2013-05-29 11:52:00,
2013-05-29 08:01:00,50.0,47.0,-100.00,SW,215,5.0,8.0,88,-99.99,,,-99.99,,2013-05-29 12:01:00,
2013-05-29 08:11:00,51.0,47.0,-100.00,SW,215,5.0,9.0,87,-99.99,,,-99.99,,2013-05-29 12:11:00,
2013-05-29 08:22:00,51.0,48.0,-100.00,South,175,7.0,17.0,90,-99.99,,,-99.99,,2013-05-29 12:22:00,
2013-05-29 08:32:00,51.0,50.0,-100.00,SW,220,5.0,16.0,97,-99.99,,,-99.99,,2013-05-29 12:32:00,
2013-05-29 08:42:00,51.0,50.0,-100.00,SW,220,5.0,7.0,96,-99.99,,,-99.99,,2013-05-29 12:42:00,
2013-05-29 08:52:00,52.0,50.0,-100.00,SW,215,5.0,8.0,94,-99.99,,,-99.99,,2013-05-29 12:52:00,
2013-05-29 09:02:00,52.0,50.0,-100.00,SW,215,5.0,8.0,94,-99.99,,,-99.99,,2013-05-29 13:02:00,
2013-05-29 09:11:00,51.0,50.0,-100.00,SW,215,8.0,10.0,95,-99.99,,,-99.99,,2013-05-29 13:11:00,
2013-05-29 09:22:00,51.0,49.0,-100.00,SW,230,6.0,12.0,91,-99.99,,,-99.99,,2013-05-29 13:22:00,
2013-05-29 09:32:00,52.0,50.0,-100.00,WSW,250,3.0,7.0,92,-99.99,,,-99.99,,2013-05-29 13:32:00,
2013-05-29 09:42:00,52.0,50.0,-100.00,WSW,250,3.0,7.0,92,-99.99,,,-99.99,,2013-05-29 13:42:00,
2013-05-29 09:53:00,52.0,50.0,-100.00,SW,220,6.0,9.0,92,-99.99,,,-99.99,,2013-05-29 13:53:00,
2013-05-29 10:02:00,53.0,50.0,-100.00,SW,235,5.0,12.0,91,-99.99,,,-99.99,,2013-05-29 14:02:00,
2013-05-29 10:11:00,53.0,50.0,-100.00,SW,215,3.0,9.0,89,-99.99,,,-99.99,,2013-05-29 14:11:00,
2013-05-29 10:22:00,54.0,50.0,-100.00,SW,225,3.0,8.0,87,-99.99,,,-99.99,,2013-05-29 14:22:00,
2013-05-29 10:42:00,54.0,51.0,-100.00,WSW,255,5.0,10.0,89,-99.99,,,-99.99,,2013-05-29 14:42:00,
2013-05-29 10:52:00,54.0,51.0,-100.00,WSW,240,5.0,10.0,88,-99.99,,,-99.99,,2013-05-29 14:52:00,
2013-05-29 11:01:00,54.0,51.0,-100.00,WSW,240,5.0,10.0,88,-99.99,,,-99.99,,2013-05-29 15:01:00,
2013-05-29 11:11:00,55.0,51.0,-100.00,WSW,250,6.0,13.0,87,-99.99,,,-99.99,,2013-05-29 15:11:00,
2013-05-29 11:21:00,55.0,52.0,-100.00,West,275,6.0,12.0,91,-99.99,,,-99.99,,2013-05-29 15:21:00,
2013-05-29 11:33:00,55.0,53.0,-100.00,WSW,240,7.0,13.0,93,-99.99,,,-99.99,,2013-05-29 15:33:00,
2013-05-29 11:42:00,56.0,53.0,-100.00,WSW,250,5.0,8.0,91,-99.99,,,-99.99,,2013-05-29 15:42:00,
2013-05-29 11:53:00,55.0,53.0,-100.00,SW,235,5.0,12.0,92,-99.99,,,-99.99,,2013-05-29 15:53:00,
2013-05-29 12:03:00,57.0,53.0,-100.00,West,275,5.0,10.0,87,-99.99,,,-99.99,,2013-05-29 16:03:00,
2013-05-29 12:13:00,57.0,53.0,-100.00,West,260,7.0,13.0,87,-99.99,,,-99.99,,2013-05-29 16:13:00,
2013-05-29 12:22:00,57.0,53.0,-100.00,West,280,7.0,13.0,86,-99.99,,,-99.99,,2013-05-29 16:22:00,